COSMOS 2460 (732)

Last updated on Fri Dec 19 2025 00:03:21 GMT+0000 (Coordinated Universal Time)

1 36402U 10007C 25352.49502091 -.00000062 00000+0 00000+0 0 9997 2 36402 65.5263 320.5784 0002587 277.1380 86.2141 2.13106267122884
UTC large
Height (km)
Speed (km/s)
/
Latitude / Longitude
Inclination (degrees)
Orbital Period (minutes)
Azimuth
Elevation
Range (km)
Doppler Factor

Next 0 passes for location: London (51.5072 / 0.1276)

Sorry there are no passes over London.